| time (UTC) | temp C | wind direction | speed KPH | gust KPH | rain 1hr cm | rain 24hr cm | rain mn cm | humidity % | barometer mb |
| 20260505152858 | 26 | 263 | 3.2 | 16.1 | 0.00 | 0.00 | 0.00 | 47 | 1011.9 |
| 20260505152358 | 26 | 201 | 3.2 | 16.1 | 0.00 | 0.00 | 0.00 | 46 | 1011.9 |
| 20260505151857 | 26 | 277 | 3.2 | 16.1 | 0.00 | 0.00 | 0.00 | 46 | 1011.8 |
| 20260505151357 | 26 | 277 | 0.0 | 16.1 | 0.00 | 0.00 | 0.00 | 48 | 1011.7 |
| 20260505150857 | 25 | 277 | 1.6 | 16.1 | 0.00 | 0.00 | 0.00 | 48 | 1011.9 |
| 20260505150357 | 25 | 277 | 3.2 | 16.1 | 0.00 | 0.00 | 0.00 | 47 | 1012.3 |
| 20260505140355 | 23 | 285 | 1.6 | 16.1 | 0.00 | 0.00 | 0.00 | 54 | 1012.6 |
| 20260505124853 | 20 | 219 | 8.0 | 16.1 | 0.00 | 0.00 | 0.00 | 63 | 1012.3 |
| 20260505124353 | 20 | 221 | 4.8 | 16.1 | 0.00 | 0.00 | 0.00 | 63 | 1012.3 |
| 20260505123853 | 20 | 223 | 4.8 | 16.1 | 0.00 | 0.00 | 0.00 | 63 | 1012.3 |
| 20260505123352 | 20 | 159 | 3.2 | 16.1 | 0.00 | 0.00 | 0.00 | 63 | 1012.4 |
| 20260505122852 | 20 | 214 | 1.6 | 16.1 | 0.00 | 0.00 | 0.00 | 63 | 1012.2 |
| 20260505122352 | 20 | 217 | 4.8 | 16.1 | 0.00 | 0.00 | 0.00 | 62 | 1012.3 |
| 20260505121852 | 20 | 214 | 1.6 | 12.9 | 0.00 | 0.00 | 0.00 | 62 | 1012.3 |
| 20260505121352 | 20 | 207 | 4.8 | 12.9 | 0.00 | 0.00 | 0.00 | 62 | 1012.2 |
| 20260505120852 | 20 | 225 | 0.0 | 12.9 | 0.00 | 0.00 | 0.00 | 63 | 1012.2 |
| 20260505120351 | 20 | 16 | 1.6 | 12.9 | 0.00 | 0.00 | 0.00 | 63 | 1012.3 |
| 20260505115851 | 20 | 304 | 1.6 | 12.9 | 0.00 | 0.00 | 0.00 | 63 | 1012.1 |
| 20260505115351 | 19 | 229 | 1.6 | 12.9 | 0.00 | 0.00 | 0.00 | 65 | 1012.2 |
| 20260505114851 | 18 | 217 | 3.2 | 12.9 | 0.00 | 0.00 | 0.00 | 66 | 1012.2 |
| 20260505114351 | 18 | 231 | 0.0 | 12.9 | 0.00 | 0.00 | 0.00 | 67 | 1012.3 |
| 20260505113851 | 18 | 222 | 0.0 | 12.9 | 0.00 | 0.00 | 0.00 | 67 | 1012.3 |
| 20260505113351 | 18 | 214 | 0.0 | 12.9 | 0.00 | 0.00 | 0.00 | 68 | 1012.3 |
| 20260505112850 | 18 | 214 | 0.0 | 12.9 | 0.00 | 0.00 | 0.00 | 69 | 1012.3 |
| 20260505112350 | 17 | 248 | 1.6 | 12.9 | 0.00 | 0.00 | 0.00 | 70 | 1012.3 |
| 20260505111850 | 17 | 221 | 1.6 | 12.9 | 0.00 | 0.00 | 0.00 | 71 | 1012.3 |
| 20260505111350 | 17 | 224 | 4.8 | 12.9 | 0.00 | 0.00 | 0.00 | 72 | 1012.2 |
| 20260505110850 | 16 | 202 | 3.2 | 12.9 | 0.00 | 0.00 | 0.00 | 73 | 1012.3 |
| 20260505110350 | 16 | 217 | 3.2 | 12.9 | 0.00 | 0.00 | 0.00 | 74 | 1012.2 |
| 20260505101848 | 15 | 262 | 0.0 | 12.9 | 0.00 | 0.00 | 0.00 | 77 | 1012.3 |
| 20260505101348 | 15 | 217 | 1.6 | 12.9 | 0.00 | 0.00 | 0.00 | 77 | 1012.1 |
| 20260505100848 | 15 | 275 | 0.0 | 12.9 | 0.00 | 0.00 | 0.00 | 77 | 1012.0 |
| 20260505100348 | 15 | 234 | 0.0 | 12.9 | 0.00 | 0.00 | 0.00 | 78 | 1011.7 |
| 20260505095848 | 15 | 240 | 0.0 | 12.9 | 0.00 | 0.00 | 0.00 | 78 | 1011.5 |
| 20260505095347 | 15 | 221 | 0.0 | 12.9 | 0.00 | 0.00 | 0.00 | 78 | 1011.5 |
| 20260505094848 | 15 | 226 | 0.0 | 12.9 | 0.00 | 0.00 | 0.00 | 78 | 1011.4 |
| 20260505094347 | 15 | 214 | 1.6 | 12.9 | 0.00 | 0.00 | 0.00 | 77 | 1011.3 |
| 20260505093847 | 15 | 227 | 1.6 | 12.9 | 0.00 | 0.00 | 0.00 | 77 | 1011.2 |
| 20260505093347 | 15 | 200 | 3.2 | 12.9 | 0.00 | 0.00 | 0.00 | 77 | 1011.2 |
| 20260505092847 | 15 | 222 | 1.6 | 12.9 | 0.00 | 0.00 | 0.00 | 77 | 1011.3 |
| 20260505092347 | 15 | 215 | 0.0 | 12.9 | 0.00 | 0.00 | 0.00 | 77 | 1011.2 |
| 20260505091846 | 15 | 267 | 3.2 | 12.9 | 0.00 | 0.00 | 0.00 | 77 | 1011.2 |
| 20260505091346 | 15 | 222 | 0.0 | 11.3 | 0.00 | 0.00 | 0.00 | 77 | 1011.2 |
| 20260505090846 | 15 | 236 | 0.0 | 11.3 | 0.00 | 0.00 | 0.00 | 77 | 1011.2 |
| 20260505090346 | 15 | 223 | 1.6 | 11.3 | 0.00 | 0.00 | 0.00 | 78 | 1011.1 |
| 20260505085846 | 15 | 219 | 1.6 | 11.3 | 0.00 | 0.00 | 0.00 | 78 | 1011.1 |
| 20260505085346 | 14 | 224 | 1.6 | 11.3 | 0.00 | 0.00 | 0.00 | 78 | 1011.2 |
| 20260505084845 | 14 | 225 | 1.6 | 11.3 | 0.00 | 0.00 | 0.00 | 78 | 1011.3 |
| 20260505084345 | 14 | 216 | 1.6 | 11.3 | 0.00 | 0.00 | 0.00 | 78 | 1011.3 |
| 20260505083845 | 14 | 190 | 0.0 | 11.3 | 0.00 | 0.00 | 0.00 | 77 | 1011.3 |
| 20260505083345 | 14 | 214 | 1.6 | 11.3 | 0.00 | 0.00 | 0.00 | 77 | 1011.3 |
| 20260505082845 | 14 | 220 | 1.6 | 11.3 | 0.00 | 0.00 | 0.00 | 77 | 1011.4 |
| 20260505082345 | 14 | 209 | 0.0 | 11.3 | 0.00 | 0.00 | 0.00 | 77 | 1011.3 |
| 20260505081844 | 14 | 209 | 0.0 | 11.3 | 0.00 | 0.00 | 0.00 | 77 | 1011.4 |
| 20260505081344 | 14 | 202 | 0.0 | 11.3 | 0.00 | 0.00 | 0.00 | 76 | 1011.4 |
| 20260505080844 | 14 | 241 | 1.6 | 11.3 | 0.00 | 0.00 | 0.00 | 76 | 1011.4 |
| 20260505080344 | 14 | 241 | 0.0 | 11.3 | 0.00 | 0.00 | 0.00 | 76 | 1011.4 |
| 20260505075844 | 14 | 241 | 0.0 | 11.3 | 0.00 | 0.00 | 0.00 | 76 | 1011.4 |
| 20260505075344 | 14 | 241 | 0.0 | 11.3 | 0.00 | 0.00 | 0.00 | 76 | 1011.4 |
| 20260505074844 | 14 | 233 | 0.0 | 11.3 | 0.00 | 0.00 | 0.00 | 75 | 1011.3 |
| 20260505074343 | 14 | 233 | 0.0 | 11.3 | 0.00 | 0.00 | 0.00 | 76 | 1011.3 |
| 20260505073843 | 14 | 233 | 0.0 | 11.3 | 0.00 | 0.00 | 0.00 | 75 | 1011.3 |
| 20260505073343 | 14 | 233 | 0.0 | 11.3 | 0.00 | 0.00 | 0.00 | 75 | 1011.2 |
| 20260505072843 | 14 | 233 | 0.0 | 11.3 | 0.00 | 0.00 | 0.00 | 75 | 1011.2 |
| 20260505072343 | 14 | 233 | 0.0 | 11.3 | 0.00 | 0.00 | 0.00 | 75 | 1011.2 |
| 20260505071843 | 15 | 233 | 0.0 | 11.3 | 0.00 | 0.00 | 0.00 | 74 | 1011.1 |
| 20260505071342 | 15 | 233 | 0.0 | 11.3 | 0.00 | 0.00 | 0.00 | 74 | 1011.1 |
| 20260505070842 | 15 | 233 | 0.0 | 11.3 | 0.00 | 0.00 | 0.00 | 73 | 1011.2 |
| 20260505070342 | 15 | 235 | 0.0 | 11.3 | 0.00 | 0.00 | 0.00 | 73 | 1011.2 |
| 20260505065842 | 15 | 231 | 0.0 | 11.3 | 0.00 | 0.00 | 0.00 | 73 | 1011.2 |
| 20260505065342 | 15 | 219 | 0.0 | 11.3 | 0.00 | 0.00 | 0.00 | 73 | 1011.2 |
| 20260505064842 | 15 | 221 | 0.0 | 11.3 | 0.00 | 0.00 | 0.00 | 72 | 1011.2 |
| 20260505064341 | 15 | 221 | 0.0 | 11.3 | 0.00 | 0.00 | 0.00 | 72 | 1011.2 |
| 20260505063841 | 15 | 222 | 1.6 | 11.3 | 0.00 | 0.00 | 0.00 | 72 | 1011.2 |
| 20260505063341 | 15 | 209 | 0.0 | 11.3 | 0.00 | 0.00 | 0.00 | 72 | 1011.1 |
| 20260505062841 | 15 | 240 | 0.0 | 11.3 | 0.00 | 0.00 | 0.00 | 71 | 1011.2 |
| 20260505062341 | 15 | 216 | 0.0 | 11.3 | 0.00 | 0.00 | 0.00 | 71 | 1011.2 |
| 20260505061841 | 15 | 212 | 1.6 | 11.3 | 0.00 | 0.00 | 0.00 | 71 | 1011.3 |
| 20260505061340 | 15 | 224 | 1.6 | 11.3 | 0.00 | 0.00 | 0.00 | 71 | 1011.3 |
| 20260505060840 | 15 | 211 | 1.6 | 11.3 | 0.00 | 0.00 | 0.00 | 71 | 1011.3 |
| 20260505060340 | 15 | 217 | 0.0 | 11.3 | 0.00 | 0.00 | 0.00 | 70 | 1011.2 |
| 20260505055840 | 15 | 217 | 1.6 | 11.3 | 0.00 | 0.00 | 0.00 | 70 | 1011.3 |
| 20260505055340 | 15 | 223 | 1.6 | 11.3 | 0.00 | 0.00 | 0.00 | 70 | 1011.3 |
| 20260505054840 | 16 | 224 | 3.2 | 11.3 | 0.00 | 0.00 | 0.00 | 70 | 1011.3 |
| 20260505054339 | 16 | 216 | 1.6 | 11.3 | 0.00 | 0.00 | 0.00 | 70 | 1011.3 |
| 20260505053839 | 15 | 228 | 3.2 | 11.3 | 0.00 | 0.00 | 0.00 | 70 | 1011.3 |
| 20260505053339 | 15 | 212 | 1.6 | 11.3 | 0.00 | 0.00 | 0.00 | 70 | 1011.3 |
| 20260505052839 | 15 | 209 | 1.6 | 11.3 | 0.00 | 0.00 | 0.00 | 69 | 1011.4 |
| 20260505052339 | 16 | 209 | 1.6 | 11.3 | 0.00 | 0.00 | 0.00 | 69 | 1011.4 |
| 20260505051839 | 16 | 157 | 1.6 | 11.3 | 0.00 | 0.00 | 0.00 | 69 | 1011.5 |
| 20260505051338 | 16 | 214 | 1.6 | 11.3 | 0.00 | 0.00 | 0.00 | 69 | 1011.6 |
| 20260505050838 | 16 | 141 | 3.2 | 11.3 | 0.00 | 0.00 | 0.00 | 69 | 1011.7 |
| 20260505050338 | 16 | 198 | 1.6 | 11.3 | 0.00 | 0.00 | 0.00 | 69 | 1011.7 |
| 20260505041337 | 15 | 212 | 4.8 | 11.3 | 0.00 | 0.00 | 0.00 | 69 | 1011.9 |
| 20260505040836 | 15 | 155 | 0.0 | 4.8 | 0.00 | 0.00 | 0.00 | 69 | 1011.9 |
| 20260505040336 | 15 | 209 | 0.0 | 3.2 | 0.00 | 0.00 | 0.00 | 69 | 1012.0 |
| 20260505035836 | 15 | 209 | 1.6 | 25.7 | 0.00 | 0.00 | 0.00 | 69 | 1012.0 |
| 20260505035336 | 15 | 209 | 0.0 | 25.7 | 0.00 | 0.00 | 0.00 | 69 | 1012.0 |
| 20260505034836 | 15 | 209 | 1.6 | 25.7 | 0.00 | 0.00 | 0.00 | 69 | 1012.0 |
| 20260505034336 | 15 | 205 | 0.0 | 25.7 | 0.00 | 0.00 | 0.00 | 69 | 1012.0 |
| 20260505033835 | 15 | 204 | 3.2 | 25.7 | 0.00 | 0.00 | 0.00 | 69 | 1012.0 |
| 20260505033335 | 15 | 224 | 1.6 | 25.7 | 0.00 | 0.00 | 0.00 | 69 | 1012.0 |
| 20260505032835 | 15 | 181 | 1.6 | 25.7 | 0.00 | 0.00 | 0.00 | 68 | 1012.0 |
| 20260505032335 | 15 | 179 | 0.0 | 25.7 | 0.00 | 0.00 | 0.00 | 68 | 1012.1 |
| 20260505031835 | 15 | 204 | 1.6 | 25.7 | 0.00 | 0.00 | 0.00 | 68 | 1012.1 |
| 20260505031335 | 15 | 142 | 0.0 | 25.7 | 0.00 | 0.00 | 0.00 | 67 | 1012.2 |
| 20260505030834 | 16 | 194 | 1.6 | 25.7 | 0.00 | 0.00 | 0.00 | 67 | 1012.2 |
| 20260505030334 | 16 | 200 | 0.0 | 25.7 | 0.00 | 0.00 | 0.00 | 66 | 1012.3 |
| 20260505025834 | 16 | 198 | 1.6 | 25.7 | 0.00 | 0.00 | 0.00 | 66 | 1012.3 |
| 20260505025334 | 16 | 208 | 1.6 | 25.7 | 0.00 | 0.00 | 0.00 | 66 | 1012.2 |
| 20260505024834 | 16 | 202 | 1.6 | 25.7 | 0.00 | 0.00 | 0.00 | 65 | 1012.3 |
| 20260505024334 | 16 | 192 | 3.2 | 25.7 | 0.00 | 0.00 | 0.00 | 65 | 1012.3 |
| 20260505023833 | 16 | 214 | 1.6 | 25.7 | 0.00 | 0.00 | 0.00 | 64 | 1012.4 |
| 20260505023333 | 16 | 160 | 1.6 | 25.7 | 0.00 | 0.00 | 0.00 | 64 | 1012.4 |
| 20260505022833 | 16 | 205 | 1.6 | 25.7 | 0.00 | 0.00 | 0.00 | 63 | 1012.5 |
| 20260505022333 | 16 | 198 | 1.6 | 25.7 | 0.00 | 0.00 | 0.00 | 63 | 1012.5 |
| 20260505021833 | 16 | 214 | 0.0 | 25.7 | 0.00 | 0.00 | 0.00 | 62 | 1012.5 |
| 20260505021333 | 16 | 206 | 1.6 | 25.7 | 0.00 | 0.00 | 0.00 | 62 | 1012.5 |
| 20260505020833 | 16 | 206 | 1.6 | 25.7 | 0.00 | 0.00 | 0.00 | 61 | 1012.6 |
| 20260505020332 | 16 | 214 | 1.6 | 25.7 | 0.00 | 0.00 | 0.00 | 61 | 1012.6 |
| 20260505015832 | 17 | 195 | 0.0 | 25.7 | 0.00 | 0.00 | 0.00 | 60 | 1012.5 |
| 20260505015332 | 17 | 204 | 3.2 | 25.7 | 0.00 | 0.00 | 0.00 | 60 | 1012.5 |
| 20260505014832 | 17 | 192 | 1.6 | 25.7 | 0.00 | 0.00 | 0.00 | 60 | 1012.3 |
| 20260505014332 | 17 | 195 | 0.0 | 25.7 | 0.00 | 0.00 | 0.00 | 60 | 1012.4 |
| 20260505013832 | 17 | 200 | 1.6 | 25.7 | 0.00 | 0.00 | 0.00 | 59 | 1012.4 |
| 20260505013331 | 17 | 149 | 1.6 | 25.7 | 0.00 | 0.00 | 0.00 | 59 | 1012.3 |
| 20260505012831 | 17 | 187 | 0.0 | 25.7 | 0.00 | 0.00 | 0.00 | 59 | 1012.4 |
| 20260505012331 | 17 | 214 | 1.6 | 25.7 | 0.00 | 0.00 | 0.00 | 58 | 1012.2 |
| 20260505011831 | 17 | 196 | 0.0 | 25.7 | 0.00 | 0.00 | 0.00 | 58 | 1012.1 |
| 20260505011331 | 17 | 212 | 1.6 | 25.7 | 0.00 | 0.00 | 0.00 | 58 | 1012.0 |
| 20260505010831 | 17 | 192 | 3.2 | 25.7 | 0.00 | 0.00 | 0.00 | 57 | 1012.0 |
| 20260505010330 | 17 | 169 | 1.6 | 25.7 | 0.00 | 0.00 | 0.00 | 57 | 1012.0 |
| 20260505005830 | 18 | 197 | 1.6 | 25.7 | 0.00 | 0.00 | 0.00 | 57 | 1012.0 |
| 20260505005330 | 18 | 209 | 4.8 | 25.7 | 0.00 | 0.00 | 0.00 | 56 | 1011.8 |
| 20260505004830 | 18 | 142 | 3.2 | 25.7 | 0.00 | 0.00 | 0.00 | 56 | 1011.8 |
| 20260505004330 | 18 | 201 | 3.2 | 25.7 | 0.00 | 0.00 | 0.00 | 55 | 1011.7 |
| 20260505003830 | 18 | 181 | 1.6 | 25.7 | 0.00 | 0.00 | 0.00 | 54 | 1011.6 |
| 20260505003329 | 18 | 213 | 3.2 | 25.7 | 0.00 | 0.00 | 0.00 | 52 | 1011.6 |
| 20260505002829 | 19 | 236 | 1.6 | 25.7 | 0.00 | 0.00 | 0.00 | 46 | 1011.5 |
| 20260505002329 | 19 | 271 | 1.6 | 25.7 | 0.00 | 0.00 | 0.00 | 45 | 1011.3 |
| 20260505001829 | 19 | 271 | 1.6 | 25.7 | 0.00 | 0.00 | 0.00 | 45 | 1011.3 |
| 20260505001329 | 20 | 271 | 0.0 | 25.7 | 0.00 | 0.00 | 0.00 | 44 | 1011.1 |
| 20260505000829 | 20 | 271 | 0.0 | 25.7 | 0.00 | 0.00 | 0.00 | 44 | 1011.1 |
| 20260505000329 | 20 | 271 | 0.0 | 25.7 | 0.00 | 0.00 | 0.00 | 43 | 1011.0 |
| 20260504235828 | 20 | 271 | 1.6 | 25.7 | 0.00 | 0.00 | 0.00 | 42 | 1010.9 |
| 20260504235328 | 20 | 285 | 1.6 | 25.7 | 0.00 | 0.00 | 0.00 | 42 | 1010.9 |
| 20260504234828 | 20 | 222 | 3.2 | 25.7 | 0.00 | 0.00 | 0.00 | 41 | 1010.8 |
| 20260504234328 | 20 | 224 | 1.6 | 25.7 | 0.00 | 0.00 | 0.00 | 41 | 1010.8 |
| 20260504233828 | 20 | 209 | 1.6 | 25.7 | 0.00 | 0.00 | 0.00 | 41 | 1010.7 |
| 20260504233328 | 20 | 225 | 3.2 | 25.7 | 0.00 | 0.00 | 0.00 | 41 | 1010.6 |
| 20260504232827 | 21 | 276 | 1.6 | 25.7 | 0.00 | 0.00 | 0.00 | 42 | 1010.5 |
| 20260504232327 | 21 | 278 | 3.2 | 25.7 | 0.00 | 0.00 | 0.00 | 41 | 1010.5 |
| 20260504231827 | 21 | 212 | 3.2 | 25.7 | 0.00 | 0.00 | 0.00 | 41 | 1010.4 |
| 20260504231327 | 21 | 230 | 1.6 | 25.7 | 0.00 | 0.00 | 0.00 | 40 | 1010.5 |
| 20260504230827 | 21 | 227 | 1.6 | 25.7 | 0.00 | 0.00 | 0.00 | 40 | 1010.3 |
| 20260504230327 | 21 | 221 | 3.2 | 25.7 | 0.00 | 0.00 | 0.00 | 39 | 1010.4 |
| 20260504225826 | 21 | 203 | 1.6 | 25.7 | 0.00 | 0.00 | 0.00 | 39 | 1010.3 |
| 20260504225326 | 21 | 217 | 1.6 | 25.7 | 0.00 | 0.00 | 0.00 | 39 | 1010.2 |
| 20260504224826 | 22 | 229 | 3.2 | 25.7 | 0.00 | 0.00 | 0.00 | 38 | 1010.3 |
| 20260504224326 | 22 | 224 | 4.8 | 25.7 | 0.00 | 0.00 | 0.00 | 38 | 1010.3 |
| 20260504223826 | 22 | 177 | 1.6 | 25.7 | 0.00 | 0.00 | 0.00 | 37 | 1010.3 |
| 20260504223326 | 22 | 206 | 3.2 | 25.7 | 0.00 | 0.00 | 0.00 | 36 | 1010.2 |
| 20260504222825 | 22 | 269 | 3.2 | 25.7 | 0.00 | 0.00 | 0.00 | 36 | 1010.2 |
| 20260504222325 | 23 | 228 | 3.2 | 25.7 | 0.00 | 0.00 | 0.00 | 35 | 1010.3 |
| 20260504221825 | 23 | 226 | 8.0 | 25.7 | 0.00 | 0.00 | 0.00 | 35 | 1010.4 |
| 20260504221325 | 23 | 274 | 1.6 | 25.7 | 0.00 | 0.00 | 0.00 | 34 | 1010.4 |
| 20260504220825 | 23 | 261 | 1.6 | 25.7 | 0.00 | 0.00 | 0.00 | 34 | 1010.4 |
| 20260504220324 | 23 | 261 | 3.2 | 25.7 | 0.00 | 0.00 | 0.00 | 34 | 1010.4 |
| 20260504215824 | 23 | 274 | 1.6 | 25.7 | 0.00 | 0.00 | 0.00 | 34 | 1010.4 |
| 20260504215324 | 23 | 285 | 3.2 | 25.7 | 0.00 | 0.00 | 0.00 | 34 | 1010.4 |
| 20260504214824 | 23 | 285 | 3.2 | 25.7 | 0.00 | 0.00 | 0.00 | 33 | 1010.5 |
| 20260504214324 | 23 | 285 | 3.2 | 25.7 | 0.00 | 0.00 | 0.00 | 33 | 1010.5 |
| 20260504213824 | 23 | 285 | 3.2 | 25.7 | 0.00 | 0.00 | 0.00 | 33 | 1010.6 |
| 20260504213323 | 23 | 268 | 3.2 | 25.7 | 0.00 | 0.00 | 0.00 | 33 | 1010.6 |
| 20260504212823 | 24 | 257 | 4.8 | 25.7 | 0.00 | 0.00 | 0.00 | 33 | 1010.6 |
| 20260504212323 | 23 | 268 | 1.6 | 25.7 | 0.00 | 0.00 | 0.00 | 33 | 1010.6 |
| 20260504211823 | 24 | 268 | 3.2 | 25.7 | 0.00 | 0.00 | 0.00 | 33 | 1010.7 |
| 20260504211323 | 24 | 237 | 1.6 | 25.7 | 0.00 | 0.00 | 0.00 | 33 | 1010.7 |
| 20260504210822 | 23 | 261 | 3.2 | 25.7 | 0.00 | 0.00 | 0.00 | 33 | 1010.6 |
| 20260504210322 | 24 | 231 | 1.6 | 25.7 | 0.00 | 0.00 | 0.00 | 33 | 1010.6 |
| 20260504205822 | 24 | 230 | 3.2 | 25.7 | 0.00 | 0.00 | 0.00 | 33 | 1010.6 |
| 20260504205322 | 23 | 216 | 1.6 | 25.7 | 0.00 | 0.00 | 0.00 | 33 | 1010.6 |
| 20260504204822 | 23 | 233 | 3.2 | 25.7 | 0.00 | 0.00 | 0.00 | 33 | 1010.7 |
| 20260504204321 | 24 | 220 | 4.8 | 25.7 | 0.00 | 0.00 | 0.00 | 33 | 1010.7 |
| 20260504203821 | 24 | 245 | 3.2 | 25.7 | 0.00 | 0.00 | 0.00 | 33 | 1010.7 |
| 20260504203321 | 24 | 271 | 4.8 | 25.7 | 0.00 | 0.00 | 0.00 | 33 | 1010.7 |
| 20260504202821 | 23 | 229 | 1.6 | 25.7 | 0.00 | 0.00 | 0.00 | 33 | 1010.7 |
| 20260504202321 | 23 | 226 | 3.2 | 25.7 | 0.00 | 0.00 | 0.00 | 34 | 1010.7 |
| 20260504201821 | 24 | 225 | 4.8 | 25.7 | 0.00 | 0.00 | 0.00 | 32 | 1010.8 |
| 20260504201320 | 24 | 257 | 1.6 | 25.7 | 0.00 | 0.00 | 0.00 | 34 | 1010.8 |
| 20260504200820 | 23 | 216 | 4.8 | 25.7 | 0.00 | 0.00 | 0.00 | 33 | 1010.8 |
| 20260504200320 | 23 | 210 | 3.2 | 25.7 | 0.00 | 0.00 | 0.00 | 33 | 1010.9 |
| 20260504195820 | 23 | 240 | 3.2 | 25.7 | 0.00 | 0.00 | 0.00 | 34 | 1010.9 |
| 20260504195320 | 23 | 218 | 3.2 | 25.7 | 0.00 | 0.00 | 0.00 | 34 | 1010.9 |
| 20260504194820 | 24 | 243 | 8.0 | 25.7 | 0.00 | 0.00 | 0.00 | 34 | 1011.0 |
| 20260504194319 | 24 | 227 | 3.2 | 25.7 | 0.00 | 0.00 | 0.00 | 35 | 1011.0 |
| 20260504193819 | 23 | 155 | 4.8 | 25.7 | 0.00 | 0.00 | 0.00 | 35 | 1011.1 |
| 20260504193319 | 23 | 286 | 8.0 | 25.7 | 0.00 | 0.00 | 0.00 | 35 | 1011.0 |
| 20260504192819 | 23 | 258 | 3.2 | 25.7 | 0.00 | 0.00 | 0.00 | 35 | 1011.1 |
| 20260504192319 | 23 | 208 | 3.2 | 25.7 | 0.00 | 0.00 | 0.00 | 34 | 1011.2 |
| 20260504191819 | 23 | 214 | 3.2 | 25.7 | 0.00 | 0.00 | 0.00 | 35 | 1011.2 |
| 20260504191318 | 23 | 209 | 4.8 | 25.7 | 0.00 | 0.00 | 0.00 | 34 | 1011.3 |
| 20260504190818 | 23 | 225 | 3.2 | 25.7 | 0.00 | 0.00 | 0.00 | 34 | 1011.3 |
| 20260504190318 | 23 | 211 | 9.7 | 25.7 | 0.00 | 0.00 | 0.00 | 35 | 1011.5 |
| 20260504185818 | 23 | 222 | 1.6 | 25.7 | 0.00 | 0.00 | 0.00 | 35 | 1011.4 |
| 20260504185318 | 23 | 208 | 4.8 | 25.7 | 0.00 | 0.00 | 0.00 | 35 | 1011.6 |
| 20260504184818 | 23 | 230 | 4.8 | 25.7 | 0.00 | 0.00 | 0.00 | 35 | 1011.7 |
| 20260504184317 | 23 | 261 | 3.2 | 25.7 | 0.00 | 0.00 | 0.00 | 35 | 1011.7 |
| 20260504183817 | 23 | 292 | 4.8 | 25.7 | 0.00 | 0.00 | 0.00 | 34 | 1011.7 |
| 20260504183317 | 23 | 282 | 3.2 | 25.7 | 0.00 | 0.00 | 0.00 | 35 | 1011.9 |
| 20260504182817 | 23 | 240 | 4.8 | 25.7 | 0.00 | 0.00 | 0.00 | 34 | 1011.8 |
| 20260504182317 | 23 | 223 | 3.2 | 25.7 | 0.00 | 0.00 | 0.00 | 35 | 1011.8 |
| 20260504181817 | 23 | 237 | 4.8 | 25.7 | 0.00 | 0.00 | 0.00 | 34 | 1011.8 |
| 20260504181316 | 23 | 114 | 1.6 | 25.7 | 0.00 | 0.00 | 0.00 | 35 | 1011.9 |
| 20260504180816 | 22 | 208 | 3.2 | 25.7 | 0.00 | 0.00 | 0.00 | 35 | 1012.1 |
| 20260504180316 | 23 | 264 | 8.0 | 25.7 | 0.00 | 0.00 | 0.00 | 35 | 1012.1 |
| 20260504175816 | 23 | 224 | 3.2 | 25.7 | 0.00 | 0.00 | 0.00 | 36 | 1012.1 |
| 20260504175316 | 22 | 232 | 8.0 | 25.7 | 0.00 | 0.00 | 0.00 | 35 | 1012.3 |
| 20260504174816 | 22 | 240 | 9.7 | 25.7 | 0.00 | 0.00 | 0.00 | 36 | 1012.4 |
| 20260504174316 | 22 | 220 | 3.2 | 25.7 | 0.00 | 0.00 | 0.00 | 36 | 1012.3 |
| 20260504173815 | 22 | 238 | 3.2 | 25.7 | 0.00 | 0.00 | 0.00 | 36 | 1012.3 |
| 20260504173315 | 22 | 210 | 3.2 | 25.7 | 0.00 | 0.00 | 0.00 | 36 | 1012.4 |
| 20260504172815 | 22 | 228 | 8.0 | 25.7 | 0.00 | 0.00 | 0.00 | 38 | 1012.5 |
| 20260504172315 | 22 | 215 | 4.8 | 25.7 | 0.00 | 0.00 | 0.00 | 38 | 1012.7 |
| 20260504171815 | 21 | 227 | 4.8 | 25.7 | 0.00 | 0.00 | 0.00 | 38 | 1012.6 |
| 20260504171315 | 22 | 222 | 12.9 | 25.7 | 0.00 | 0.00 | 0.00 | 38 | 1012.6 |
| 20260504170815 | 22 | 281 | 3.2 | 25.7 | 0.00 | 0.00 | 0.00 | 37 | 1012.8 |
| 20260504170314 | 21 | 225 | 1.6 | 25.7 | 0.00 | 0.00 | 0.00 | 38 | 1012.7 |
| 20260504160313 | 20 | 282 | 4.8 | 22.5 | 0.00 | 0.00 | 0.00 | 37 | 1013.6 |